Change the Weather History Date:

Sunday, April 13, 2014

  Actual Average (KSBY) Record (KSBY)
Temperature  
Mean Temperature 60 °F 53 °F  
Max Temperature 69 °F 64 °F 86 °F (1977)
Min Temperature 51 °F 43 °F 24 °F (1940)
Degree Days  
Heating Degree Days 6 12  
Month to date heating degree days 179  
Since 1 July heating degree days 4114  
Cooling Degree Days 0 0  
Month to date cooling degree days 0  
Year to date cooling degree days 2  
Growing Degree Days 10 (Base 50)    
Moisture  
Dew Point 53 °F    
Average Humidity 82    
Maximum Humidity 96    
Minimum Humidity 68    
Precipitation  
Precipitation 0.00 in 0.12 in 1.45 in (1994)
Month to date precipitation 1.70  
Year to date precipitation 13.08  
Snow  
Snow 0.00 in 0.00 in 1.00 in (1940)
Month to date snowfall 0.1  
Since 1 July snowfall 9.2  
Snow Depth -    
Sea Level Pressure  
Sea Level Pressure 30.16 in    
Wind  
Wind Speed 6 mph (SSW)    
Max Wind Speed 16 mph    
Max Gust Speed 28 mph    
Visibility 9 miles    
Events      
T = Trace of Precipitation, MM = Missing Value Source: NWS Daily Summary

Daily Weather History Graph

Daily Weather History Graph

Search for Another Location

Airport or City:

Trip Planner

Search our weather history database for the weather conditions in past years. The results will help you decide how hot, cold, wet, or windy it might be!

Date:

Astronomy

Apr. 13, 2014 Rise Set
Actual Time 6:27 AM EDT 7:34 PM EDT
Civil Twilight 6:00 AM EDT 8:02 PM EDT
Nautical Twilight 5:28 AM EDT 8:34 PM EDT
Astronomical Twilight 4:54 AM EDT 9:08 PM EDT
Moon 6:11 PM EDT (4/13) 5:23 AM EDT (4/13)
Length of Visible Light 14h 01m
Length of Day
13h 07m
Waxing Gibbous, 97% of the Moon is Illuminated
Apr 13
Waxing Gibbous
Apr 15
Full
Apr 22
Last Quarter
Apr 29
New
May 6
First Quarter

Hourly Weather History & Observations

Time (EDT) Temp. Dew Point Humidity Pressure Visibility Wind Dir Wind Speed Gust Speed Precip Events Conditions
12:53 AM 52.0 °F 48.9 °F 89% 30.21 in 10.0 mi Calm Calm - N/A   Clear
1:53 AM 51.1 °F 48.0 °F 89% 30.20 in 9.0 mi South 3.5 mph - N/A   Scattered Clouds
2:53 AM 51.1 °F 48.9 °F 92% 30.19 in 9.0 mi SSE 3.5 mph - N/A   Clear
3:53 AM 53.1 °F 50.0 °F 89% 30.19 in 8.0 mi Calm Calm - N/A   Clear
4:53 AM 52.0 °F 50.0 °F 93% 30.18 in 5.0 mi South 4.6 mph - N/A   Partly Cloudy
5:53 AM 51.1 °F 50.0 °F 96% 30.19 in 5.0 mi Variable 4.6 mph - N/A   Clear
6:53 AM 52.0 °F 50.0 °F 93% 30.20 in 5.0 mi South 3.5 mph - N/A   Clear
7:53 AM 55.0 °F 52.0 °F 89% 30.21 in 9.0 mi South 4.6 mph - N/A   Clear
8:53 AM 63.0 °F 54.0 °F 72% 30.21 in 10.0 mi SSW 9.2 mph 17.3 mph N/A   Clear
9:53 AM 63.0 °F 54.0 °F 72% 30.21 in 10.0 mi SSW 8.1 mph - N/A   Clear
10:53 AM 62.1 °F 53.1 °F 72% 30.20 in 10.0 mi South 9.2 mph - N/A   Clear
11:53 AM 68.0 °F 57.0 °F 68% 30.18 in 10.0 mi SSW 11.5 mph 17.3 mph N/A   Clear
12:53 PM 61.0 °F 53.1 °F 75% 30.17 in 10.0 mi SSW 6.9 mph 18.4 mph N/A   Clear
1:53 PM 64.0 °F 55.0 °F 73% 30.17 in 10.0 mi SSW 10.4 mph 18.4 mph N/A   Clear
2:53 PM 64.0 °F 54.0 °F 70% 30.15 in 10.0 mi South 10.4 mph 19.6 mph N/A   Clear
3:53 PM 63.0 °F 55.0 °F 75% 30.14 in 10.0 mi SSW 12.7 mph 19.6 mph N/A   Clear
4:53 PM 61.0 °F 54.0 °F 78% 30.12 in 10.0 mi SSW 9.2 mph 17.3 mph N/A   Clear
5:53 PM 63.0 °F 55.9 °F 78% 30.12 in 10.0 mi SSW 13.8 mph 19.6 mph N/A   Clear
6:53 PM 60.1 °F 54.0 °F 80% 30.11 in 10.0 mi SSW 16.1 mph 27.6 mph N/A   Clear
8:53 PM 61.0 °F 55.0 °F 81% 30.12 in 10.0 mi SSW 15.0 mph 23.0 mph N/A   Clear
9:53 PM 60.1 °F 55.0 °F 83% 30.11 in 10.0 mi SSW 12.7 mph 23.0 mph N/A   Clear
10:53 PM 61.0 °F 55.9 °F 83% 30.10 in 10.0 mi SSW 11.5 mph 20.7 mph N/A   Clear
11:53 PM 60.1 °F 55.9 °F 86% 30.11 in 10.0 mi SSW 11.5 mph 19.6 mph N/A   Clear